DW9866 Weather Reports


time (UTC)temp
C
wind
direction
speed
KPH
gust
KPH
rain 1hr
cm
rain 24hr
cm
rain mn
cm
humidity
%
barometer
mb
20260510011553 10 204 14.5 27.4 0.00 0.66 0.66 88 1009.0
20260510010023 9 204 16.1 27.4 0.00 0.66 0.66 90 1009.0
20260510004600 9 204 12.9 24.1 0.00 0.66 0.66 91 1008.9
20260510003043 9 204 12.9 22.5 0.00 0.66 0.66 90 1008.8
20260510001538 10 204 9.7 17.7 0.00 0.66 0.66 91 1008.8
20260510000037 10 204 11.3 22.5 0.00 0.66 0.66 91 1008.9
20260509234526 10 204 11.3 22.5 0.00 0.69 0.66 90 1008.5
20260509233030 10 204 9.7 19.3 0.00 0.69 0.66 90 1008.3
20260509231522 10 204 9.7 27.4 0.00 0.69 0.66 90 1008.2
20260509230024 10 204 11.3 17.7 0.00 0.69 0.66 90 1008.2
20260509224526 10 204 8.0 19.3 0.00 0.69 0.66 92 1008.1
20260509223025 10 204 8.0 17.7 0.00 0.69 0.66 92 1008.3
20260509221522 10 204 11.3 20.9 0.00 0.69 0.66 92 1008.3
20260509220015 10 204 11.3 20.9 0.00 0.69 0.66 96 1008.3
20260509214518 9 204 8.0 20.9 0.00 0.69 0.66 98 1008.6
20260509213008 9 204 8.0 20.9 0.00 0.69 0.66 99 1008.7
20260509211513 8 204 9.7 20.9 0.00 0.69 0.66 99 1008.8
20260509210004 8 204 6.4 16.1 0.00 0.69 0.66 99 1009.0
20260509204503 8 204 11.3 22.5 0.03 0.69 0.66 98 1009.1
20260509203104 8 204 12.9 25.7 0.03 0.69 0.66 98 1009.0
20260509201558 8 204 9.7 25.7 0.05 0.69 0.66 99 1009.0
20260509200055 8 204 12.9 22.5 0.08 0.69 0.66 99 1008.9
20260509194559 8 204 9.7 19.3 0.08 0.66 0.64 99 1009.1
20260509193047 8 204 8.0 20.9 0.15 0.66 0.64 99 1009.6
20260509191547 7 204 6.4 19.3 0.15 0.64 0.61 98 1009.9
20260509190047 7 204 14.5 27.4 0.18 0.61 0.58 98 1009.9
20260509184547 8 204 16.1 29.0 0.18 0.56 0.53 98 1009.9
20260509183040 7 204 14.5 27.4 0.15 0.51 0.48 98 1010.0
20260509181538 7 204 14.5 37.0 0.20 0.48 0.46 98 1010.1
20260509180041 7 204 14.5 33.8 0.18 0.43 0.41 98 1010.0
20260509174536 7 204 14.5 30.6 0.15 0.38 0.36 98 1009.9
20260509173034 7 204 17.7 33.8 0.15 0.36 0.33 98 1009.8
20260509171531 8 204 16.1 29.0 0.10 0.28 0.25 98 1009.8
20260509170032 8 204 16.1 30.6 0.08 0.25 0.23 97 1009.9
20260509164528 8 204 17.7 29.0 0.05 0.23 0.20 97 1009.9
20260509163031 8 204 12.9 27.4 0.03 0.20 0.18 96 1010.0
20260509161519 8 204 14.5 27.4 0.00 0.18 0.15 96 1010.1
20260509160012 7 204 14.5 30.6 0.00 0.18 0.15 96 1010.1
20260509154503 8 204 12.9 29.0 0.00 0.18 0.15 96 1010.1
20260509153005 8 204 19.3 30.6 0.03 0.18 0.15 94 1010.1
20260509151553 8 204 9.7 24.1 0.03 0.18 0.15 95 1010.2
20260509150050 7 204 11.3 20.9 0.05 0.18 0.15 95 1010.2
20260509144546 7 204 9.7 22.5 0.05 0.18 0.15 95 1010.3
20260509143047 7 204 11.3 27.4 0.05 0.15 0.13 94 1010.4
20260509141536 7 204 12.9 29.0 0.03 0.13 0.10 92 1010.7
20260509140045 7 204 11.3 29.0 0.03 0.13 0.10 93 1010.5
20260509134528 7 204 8.0 19.3 0.03 0.13 0.08 94 1010.5
20260509133012 7 204 12.9 25.7 0.00 0.10 0.08 93 1010.3
20260509131512 7 204 11.3 25.7 0.00 0.10 0.08 92 1010.4
20260509130012 7 206 11.3 25.7 0.03 0.10 0.08 91 1010.3
20260509124605 7 206 9.7 20.9 0.03 0.10 0.08 90 1010.3
20260509123047 7 206 11.3 20.9 0.03 0.10 0.08 89 1010.3
20260509121541 8 206 11.3 20.9 0.03 0.10 0.08 88 1010.3
20260509120029 7 206 11.3 17.7 0.00 0.08 0.05 88 1010.4
20260509114521 7 206 11.3 19.3 0.00 0.08 0.05 88 1010.6
20260509113100 7 206 11.3 22.5 0.00 0.08 0.05 87 1010.6
20260509111538 7 206 11.3 24.1 0.00 0.08 0.05 86 1010.7
20260509110029 7 206 14.5 22.5 0.03 0.08 0.05 86 1010.6
20260509104534 7 206 12.9 24.1 0.03 0.08 0.05 85 1010.4
20260509103026 7 206 11.3 24.1 0.03 0.08 0.05 85 1010.4
20260509101517 7 206 14.5 24.1 0.03 0.08 0.05 84 1010.3
20260509100014 7 206 8.0 22.5 0.00 0.05 0.03 84 1010.5
20260509094508 7 206 12.9 22.5 0.00 0.05 0.03 84 1010.3
20260509093004 7 205 9.7 17.7 0.00 0.05 0.03 86 1010.4
20260509091505 7 206 8.0 16.1 0.00 0.05 0.03 88 1010.6
20260509090007 7 206 6.4 11.3 0.00 0.05 0.03 89 1010.9
20260509084546 6 206 6.4 11.3 0.00 0.05 0.03 91 1011.1
20260509083022 6 206 6.4 12.9 0.00 0.05 0.03 93 1011.4
20260509081559 6 206 3.2 8.0 0.00 0.05 0.03 93 1011.6
20260509080100 7 206 3.2 8.0 0.00 0.05 0.03 91 1011.7
20260509074510 7 206 3.2 6.4 0.00 0.05 0.03 91 1011.5
20260509073206 7 206 1.6 4.8 0.00 0.05 0.03 91 1011.9
20260509071536 7 206 1.6 8.0 0.00 0.05 0.03 89 1011.9
20260509070016 7 206 0.0 4.8 0.00 0.05 0.03 89 1011.4
20260509064549 7 206 1.6 3.2 0.03 0.05 0.03 89 1011.6
20260509063031 7 206 1.6 4.8 0.03 0.05 0.03 90 1012.0
20260509061505 7 206 0.0 11.3 0.03 0.05 0.03 92 1012.2
20260509060043 6 206 6.4 19.3 0.03 0.05 0.03 92 1012.6
20260509054530 7 206 9.7 20.9 0.00 0.05 0.00 91 1012.8
20260509053005 7 206 6.4 16.1 0.00 0.05 0.00 89 1012.5
20260509051539 7 206 6.4 12.9 0.00 0.05 0.00 86 1012.3
20260509050032 8 206 1.6 8.0 0.00 0.05 0.00 84 1012.1
20260509044601 8 206 0.0 9.7 0.00 0.10 0.00 85 1011.9
20260509043043 7 206 0.0 6.4 0.00 0.10 0.00 85 1012.1
20260509041509 7 205 3.2 9.7 0.00 0.10 0.00 86 1012.4
20260509040106 7 206 1.6 9.7 0.00 0.10 0.00 85 1012.6
20260509034531 7 206 1.6 9.7 0.00 0.10 0.10 86 1012.5
20260509033010 7 206 3.2 9.7 0.00 0.10 0.10 85 1012.4
20260509031545 7 206 4.8 11.3 0.00 0.10 0.10 85 1012.7
20260509030035 7 206 6.4 12.9 0.00 0.10 0.10 86 1012.8
20260509024502 7 206 4.8 9.7 0.00 0.10 0.10 86 1012.5
20260509023046 7 206 3.2 8.0 0.00 0.10 0.10 86 1012.4
20260509021521 7 206 4.8 8.0 0.00 0.10 0.10 85 1012.6
20260509020055 7 206 4.8 12.9 0.00 0.10 0.10 86 1012.5
20260509014541 7 206 3.2 6.4 0.00 0.10 0.10 87 1012.3
20260509013032 7 206 3.2 6.4 0.00 0.10 0.10 87 1012.2